Location: Castillon
(43.0896°N, 0.2156°E)
Time: 20:04:39
(UTC+00:00)

In-Cosmos 22 - Pass Details

Date: 16 June 2021
Orbit: 786 x 876 km, 81.2° (Epoch: 01 August)

Event Time Altitude Azimuth Distance (km) Brightness Sun altitude
Exits shadow 21:00:01 - 184° (S) 2,806 6.5 -11.7°
Reaches altitude 10° 21:01:12 10° 183° (S) 2,345 6.1 -11.9°
Maximum altitude 21:06:28 79° 98° (E) 806 4.0 -12.5°
Drops below altitude 10° 21:11:46 10° 13° (NNE) 2,358 7.1 -13.1°
Sets 21:14:09 0° 12° (NNE) 3,296 7.9 -13.4°
